[[{"header":{"parameterUnit":"m.s-1","parameterCategory":1,"la1":30.2992,"la2":30.254,"lo1":-89.0895,"lo2":-89.0443,"dy":0.0025,"dx":0.0025,"nx":19,"ny":19,"refTime":"2026-04-30T21:00:00:Z","depth":0,"parameterNumber":2,"parameterNumberName":"U-component_of_WINDS"},"data":[0,0,0,-5.6323,-5.6327,-5.6504,-5.6505,-5.6774,-5.6776,0,0,0,0,0,0,0,0,0,0,0,-5.6292,-5.6295,-5.6322,-5.6327,-5.6504,-5.6505,-5.6773,-5.6777,0,0,0,0,0,0,0,0,0,0,0,-5.6291,-5.6294,-5.6297,-5.6328,-5.6504,-5.6505,-5.6773,-5.6625,0,0,0,0,0,0,0,0,0,0,-5.6445,-5.6438,-5.6293,-5.6297,-5.6329,-5.6504,-5.6505,-5.6617,-5.6634,-5.671,0,-5.6781,0,-5.6783,-5.6797,-5.6798,0,0,0,-5.6312,-5.6424,-5.6452,-5.6298,-5.6331,-5.6504,-5.642,-5.6626,-5.6645,-5.6733,-5.6785,-5.6794,-5.6788,-5.6799,-5.68,-5.7288,-5.7291,0,0,-5.6302,-5.6337,-5.6438,-5.6465,-5.6437,-5.6414,-5.6426,-5.6637,-5.6697,-5.6786,-5.6799,-5.6792,-5.6801,-5.6803,-5.7285,-5.7289,0,0,0,-5.6284,-5.6331,-5.6352,-5.6455,-5.6484,-5.642,-5.6433,-5.6687,-5.6691,-5.6802,-5.6795,-5.6803,-5.6806,-5.7282,-5.7286,-5.747,0,0,0,-5.6277,-5.632,-5.6348,-5.6372,-5.6481,-5.6587,-5.6479,-5.6677,-5.6699,-5.6794,-5.6803,-5.6809,-5.7278,-5.7284,-5.7458,-5.7552,0,0,0,-5.6273,-5.6319,-5.6352,-5.6373,-5.645,-5.6583,-5.6598,-5.6681,-5.6696,-5.6798,-5.681,-5.7276,-5.7283,-5.7447,-5.7534,-5.7692,0,0,0,-5.6279,-5.6513,-5.6356,-5.6615,-5.6449,-5.6694,-5.6596,-5.6777,-5.6886,-5.6804,-5.7279,-5.7286,-5.7443,-5.7523,-5.7681,-5.7833,-5.7899,0,0,-5.6594,-5.6552,-5.6702,-5.6566,-5.6848,-5.6664,-5.6973,-5.7041,-5.702,-5.7201,-5.7212,-5.7462,-5.7533,-5.769,-5.8253,-5.8306,0,0,0,-5.6814,-5.6922,-5.6989,-5.7093,-5.7149,-5.7207,-5.7222,-5.7248,-5.74,-5.7119,-5.7559,-5.7601,-5.7691,-5.7763,-5.7808,-5.7885,-5.732,-5.7319,-5.7318,-5.7312,-5.727,-5.7516,-5.7497,-5.76,-5.7614,-5.7696,-5.7733,-5.7661,-5.7767,-5.7821,-5.8168,-5.8252,-5.8286,-5.8367,-5.7896,-5.7897,-5.7897,-5.7898,-5.7771,-5.7919,-5.7819,-5.8021,-5.7978,-5.8149,-5.8173,-5.8117,-5.8272,-5.8123,-5.8201,-5.8044,-5.8345,-5.8414,-5.7911,-5.7909,-5.7907,-5.7906,-5.7905,-5.8095,-5.8159,-5.8184,-5.8332,-5.8451,-5.8424,-5.8578,-5.8532,-5.8491,-5.8568,-5.8622,-5.8619,-5.8612,-5.8596,-5.8597,-5.8599,-5.86,-5.86,-5.8601,-5.8421,-5.8444,-5.8577,-5.8657,-5.8719,-5.8796,-5.8813,-5.8874,-5.8931,-5.8886,-5.8886,-5.8808,-5.838,-5.8276,-5.862,-5.8616,-5.8614,-5.8612,-5.8611,-5.8907,-5.879,-5.8996,-5.9059,-5.915,-5.9274,-5.9212,-5.9341,-5.9385,-5.9463,-5.9367,-5.9058,-5.9013,-5.8977,-5.889,-5.9373,-5.9372,-5.9373,-5.9373,-5.9182,-5.9154,-5.9355,-5.9459,-5.9554,-5.952,-5.976,-5.9777,-5.9777,-5.9802,-5.9725,-5.9606,-5.9571,-5.9547,-5.9498,-5.9417,-6.0023,-6.0023,-6.0024,-5.948,-5.9459,-5.967,-5.9665,-5.9734,-5.9795,-6.0019,-6.0144,-6.012,-6.0049,-5.9822,-5.9795,-5.9601,-5.9539,-5.9466,-5.9392,-5.9241,0,0]},{"header":{"parameterUnit":"m.s-1","parameterCategory":1,"la1":30.2992,"la2":30.254,"lo1":-89.0895,"lo2":-89.0443,"dy":0.0025,"dx":0.0025,"nx":19,"ny":19,"refTime":"2026-04-30T21:00:00:Z","depth":0,"parameterNumber":3,"parameterNumberName":"V-component_of_WINDS"},"data":[0,0,0,-2.0334,-2.0331,-2.0179,-2.0178,-2.0001,-1.9999,0,0,0,0,0,0,0,0,0,0,0,-2.0393,-2.0393,-2.0334,-2.033,-2.0179,-2.0178,-2.0001,-1.9999,0,0,0,0,0,0,0,0,0,0,0,-2.0393,-2.0393,-2.0392,-2.033,-2.0179,-2.0178,-2.0001,-2.0109,0,0,0,0,0,0,0,0,0,0,-2.0253,-2.0323,-2.0393,-2.0392,-2.0329,-2.0179,-2.0178,-2.0113,-2.0102,-2.0078,0,-2.0064,0,-2.0029,-1.9989,-1.9988,0,0,0,-2.0318,-2.0333,-2.0279,-2.0392,-2.0328,-2.018,-2.0244,-2.0107,-2.0094,-2.0062,-2.0061,-2.0054,-2.0026,-1.9988,-1.9987,-1.9896,-1.9896,0,0,-2.0327,-2.0373,-2.0289,-2.0272,-2.0301,-2.0249,-2.024,-2.0099,-2.0099,-2.0061,-2.005,-2.0023,-1.9987,-1.9985,-1.9895,-1.9896,0,0,0,-2.0359,-2.0379,-2.0328,-2.028,-2.0251,-2.0245,-2.0234,-2.0105,-2.0085,-2.0048,-2.0021,-1.9986,-1.9984,-1.9895,-1.9895,-1.9948,0,0,0,-2.0363,-2.0398,-2.0333,-2.0359,-2.0255,-2.0177,-2.0244,-2.0095,-2.0077,-2.0022,-1.9986,-1.9982,-1.9895,-1.9895,-1.9947,-1.9965,0,0,0,-2.0398,-2.0402,-2.0385,-2.0362,-2.0299,-2.0179,-2.015,-2.009,-2.0062,-1.9988,-1.9982,-1.9895,-1.9895,-1.9945,-1.9963,-1.9954,0,0,0,-2.0447,-2.0434,-2.0387,-2.0361,-2.0301,-2.0214,-2.015,-2.0082,-2.0025,-1.9985,-1.9895,-1.9895,-1.9944,-1.9961,-1.9953,-1.9956,-1.9962,0,0,-2.0456,-2.0437,-2.0418,-2.0371,-2.0305,-2.0233,-2.0172,-2.0075,-2.0023,-1.994,-1.9937,-1.9947,-1.9962,-1.9954,-1.9979,-1.9984,0,0,0,-2.0436,-2.0423,-2.0395,-2.0345,-2.0272,-2.0209,-2.0116,-2.0079,-2.0006,-1.9992,-1.994,-1.9948,-1.9941,-1.994,-1.9944,-1.9934,-1.9897,-1.9897,-1.9897,-2.0515,-2.0452,-2.0415,-2.0333,-2.0284,-2.0188,-2.014,-2.0073,-2.0023,-2.0011,-1.9987,-2.001,-2.0011,-2.0014,-2.0004,-1.9983,-1.9983,-1.9983,-1.9983,-2.0522,-2.0492,-2.0425,-2.0366,-2.0297,-2.0244,-2.0148,-2.0113,-2.0051,-2.0024,-2.0014,-1.9991,-2.0022,-2.001,-1.9986,-1.9986,-1.9985,-1.9985,-1.9985,-2.0567,-2.0542,-2.0498,-2.0417,-2.036,-2.0274,-2.0218,-2.0156,-2.0097,-2.0088,-2.0053,-2.0052,-2.0043,-2.0076,-2.0076,-2.0076,-2.0076,-2.0076,-2.0076,-2.0631,-2.058,-2.0543,-2.0462,-2.042,-2.0356,-2.0256,-2.0211,-2.0145,-2.0103,-2.0103,-2.0052,-2.0037,-2.0035,-2.0077,-2.0077,-2.0077,-2.0077,-2.0077,-2.0661,-2.0644,-2.0587,-2.0545,-2.0442,-2.0388,-2.031,-2.0223,-2.0176,-2.0149,-2.0098,-2.0098,-2.0073,-2.0069,-2.0066,-2.0114,-2.0114,-2.0114,-2.0114,-2.07,-2.0681,-2.0607,-2.0543,-2.0472,-2.0395,-2.0326,-2.0246,-2.016,-2.0125,-2.0109,-2.01,-2.0099,-2.0074,-2.007,-2.0066,-2.0113,-2.0113,-2.0113,-2.0714,-2.0685,-2.0642,-2.0561,-2.0475,-2.0401,-2.0334,-2.0258,-2.0156,-2.0112,-2.0097,-2.0097,-2.0081,-2.008,-2.0037,-2.0032,-2.0025,0,0]}]]